When you browse on this site, cookies collect data to enhance your experience and personalize the content and advertising you see.
Visit our Privacy Policy to learn more. By continuing to use the site, you agree to this use of cookies and data.
  • In Lithuania
  • List of Countries
  • For 7 days
  • Water Temperature
  • Weather Map
  • Weather Widgets
  • user-avatar
    Login

    Hourly Weather Kabwe

    Today, 6 June, Saturday

    Time Temperature Precipitation Wind Pressure Humidity
    00:00 +16°C° 0 mm 2 mps 664 mmHg 75%
    01:00 +15°C° 0 mm 2 mps 663 mmHg 78%
    02:00 +15°C° 0 mm 2 mps 663 mmHg 82%
    03:00 +14°C° 0 mm 2 mps 663 mmHg 85%
    04:00 +13°C° 0 mm 2 mps 663 mmHg 89%
    05:00 +13°C° 0 mm 1 mps 663 mmHg 93%
    06:00 +14°C° 0 mm 2 mps 664 mmHg 86%
    07:00 +14°C° 0 mm 3 mps 665 mmHg 79%
    08:00 +17°C° 0 mm 3 mps 665 mmHg 72%
    09:00 +19°C° 0 mm 3 mps 666 mmHg 61%
    10:00 +22°C° 0 mm 3 mps 666 mmHg 51%
    11:00 +25°C° 0 mm 3 mps 667 mmHg 41%
    12:00 +26°C° 0 mm 3 mps 666 mmHg 37%
    13:00 +27°C° 0 mm 3 mps 666 mmHg 33%
    14:00 +28°C° 0 mm 3 mps 665 mmHg 29%
    15:00 +27°C° 0 mm 2 mps 665 mmHg 31%
    16:00 +26°C° 0 mm 2 mps 664 mmHg 33%
    17:00 +25°C° 0 mm 2 mps 664 mmHg 35%
    18:00 +23°C° 0 mm 2 mps 664 mmHg 38%
    19:00 +21°C° 0 mm 3 mps 665 mmHg 41%
    20:00 +20°C° 0 mm 3 mps 665 mmHg 44%
    21:00 +19°C° 0 mm 3 mps 665 mmHg 49%
    22:00 +18°C° 0 mm 2 mps 664 mmHg 55%
    23:00 +17°C° 0 mm 2 mps 664 mmHg 60%

    Tomorrow, 7 June, Sunday

    Time Temperature Precipitation Wind Pressure Humidity
    00:00 +17°C° 0 mm 2 mps 664 mmHg 62%
    01:00 +16°C° 0 mm 2 mps 664 mmHg 64%
    02:00 +16°C° 0 mm 2 mps 663 mmHg 66%
    03:00 +15°C° 0 mm 2 mps 663 mmHg 69%
    04:00 +14°C° 0 mm 2 mps 663 mmHg 72%
    05:00 +13°C° 0 mm 2 mps 663 mmHg 74%
    06:00 +13°C° 0 mm 3 mps 664 mmHg 71%
    07:00 +14°C° 0 mm 4 mps 664 mmHg 67%
    08:00 +15°C° 0 mm 4 mps 665 mmHg 64%
    09:00 +19°C° 0 mm 4 mps 665 mmHg 55%
    10:00 +21°C° 0 mm 4 mps 666 mmHg 47%
    11:00 +23°C° 0 mm 4 mps 666 mmHg 39%
    12:00 +25°C° 0 mm 4 mps 666 mmHg 36%
    13:00 +26°C° 0 mm 3 mps 665 mmHg 32%
    14:00 +27°C° 0 mm 3 mps 665 mmHg 29%
    15:00 +26°C° 0 mm 3 mps 665 mmHg 31%
    16:00 +25°C° 0 mm 2 mps 664 mmHg 34%
    17:00 +23°C° 0 mm 2 mps 664 mmHg 36%
    18:00 +21°C° 0 mm 2 mps 664 mmHg 42%
    19:00 +19°C° 0 mm 2 mps 664 mmHg 47%
    20:00 +18°C° 0 mm 2 mps 664 mmHg 53%
    21:00 +17°C° 0 mm 2 mps 664 mmHg 57%
    22:00 +16°C° 0 mm 2 mps 664 mmHg 62%
    23:00 +14°C° 0 mm 2 mps 663 mmHg 66%

    Day after tomorrow, 8 June, Monday

    Time Temperature Precipitation Wind Pressure Humidity
    00:00 +14°C° 0 mm 2 mps 663 mmHg 68%
    01:00 +14°C° 0 mm 2 mps 663 mmHg 70%
    02:00 +13°C° 0 mm 2 mps 663 mmHg 72%
    03:00 +13°C° 0 mm 2 mps 662 mmHg 75%
    04:00 +12°C° 0 mm 2 mps 662 mmHg 77%
    05:00 +12°C° 0 mm 2 mps 662 mmHg 79%
    06:00 +12°C° 0 mm 3 mps 663 mmHg 73%
    07:00 +14°C° 0 mm 4 mps 664 mmHg 67%
    08:00 +15°C° 0 mm 5 mps 664 mmHg 61%
    09:00 +18°C° 0 mm 4 mps 665 mmHg 54%
    10:00 +20°C° 0 mm 4 mps 665 mmHg 47%
    11:00 +23°C° 0 mm 4 mps 665 mmHg 40%
    12:00 +23°C° 0 mm 4 mps 665 mmHg 38%
    13:00 +25°C° 0 mm 4 mps 664 mmHg 35%
    14:00 +26°C° 0 mm 3 mps 664 mmHg 32%
    15:00 +25°C° 0 mm 3 mps 664 mmHg 34%
    16:00 +24°C° 0 mm 3 mps 663 mmHg 36%
    17:00 +24°C° 0 mm 3 mps 663 mmHg 38%
    18:00 +20°C° 0 mm 3 mps 663 mmHg 44%
    19:00 +18°C° 0 mm 3 mps 663 mmHg 51%
    20:00 +16°C° 0 mm 3 mps 663 mmHg 58%
    21:00 +15°C° 0 mm 2 mps 663 mmHg 63%
    22:00 +14°C° 0 mm 2 mps 663 mmHg 68%
    23:00 +13°C° 0 mm 2 mps 663 mmHg 73%

    9 June, Tuesday

    Time Temperature Precipitation Wind Pressure Humidity
    00:00 +13°C° 0 mm 2 mps 662 mmHg 76%
    01:00 +13°C° 0 mm 2 mps 662 mmHg 78%
    02:00 +12°C° 0 mm 2 mps 662 mmHg 81%
    03:00 +12°C° 0 mm 2 mps 662 mmHg 82%
    04:00 +10°C° 0 mm 2 mps 662 mmHg 83%
    05:00 +10°C° 0 mm 2 mps 662 mmHg 85%
    06:00 +12°C° 0 mm 3 mps 663 mmHg 77%
    07:00 +13°C° 0 mm 3 mps 663 mmHg 69%
    08:00 +15°C° 0 mm 4 mps 664 mmHg 62%
    09:00 +18°C° 0 mm 4 mps 664 mmHg 54%
    10:00 +21°C° 0 mm 4 mps 665 mmHg 46%
    11:00 +23°C° 0 mm 4 mps 665 mmHg 39%
    12:00 +25°C° 0 mm 4 mps 665 mmHg 36%
    13:00 +26°C° 0 mm 4 mps 664 mmHg 34%
    14:00 +26°C° 0 mm 4 mps 664 mmHg 31%
    15:00 +26°C° 0 mm 3 mps 663 mmHg 33%
    16:00 +25°C° 0 mm 3 mps 663 mmHg 34%
    17:00 +24°C° 0 mm 3 mps 663 mmHg 36%
    18:00 +21°C° 0 mm 3 mps 663 mmHg 43%
    19:00 +18°C° 0 mm 3 mps 663 mmHg 50%
    20:00 +16°C° 0 mm 2 mps 663 mmHg 57%
    21:00 +15°C° 0 mm 2 mps 663 mmHg 61%
    22:00 +14°C° 0 mm 2 mps 662 mmHg 66%
    23:00 +14°C° 0 mm 2 mps 662 mmHg 70%

    10 June, Wednesday

    Time Temperature Precipitation Wind Pressure Humidity
    00:00 +13°C° 0 mm 2 mps 662 mmHg 70%
    01:00 +13°C° 0 mm 2 mps 662 mmHg 71%
    02:00 +12°C° 0 mm 2 mps 662 mmHg 71%
    03:00 +12°C° 0 mm 2 mps 662 mmHg 72%
    04:00 +12°C° 0 mm 2 mps 662 mmHg 73%
    05:00 +10°C° 0 mm 2 mps 662 mmHg 74%
    06:00 +13°C° 0 mm 2 mps 663 mmHg 68%
    07:00 +13°C° 0 mm 3 mps 663 mmHg 62%
    08:00 +15°C° 0 mm 4 mps 664 mmHg 56%
    09:00 +18°C° 0 mm 4 mps 665 mmHg 49%
    10:00 +21°C° 0 mm 4 mps 665 mmHg 42%
    11:00 +25°C° 0 mm 4 mps 666 mmHg 35%
    12:00 +26°C° 0 mm 3 mps 665 mmHg 33%
    13:00 +27°C° 0 mm 3 mps 665 mmHg 30%
    14:00 +28°C° 0 mm 2 mps 664 mmHg 27%
    15:00 +27°C° 0 mm 3 mps 664 mmHg 29%
    16:00 +26°C° 0 mm 3 mps 663 mmHg 31%
    17:00 +25°C° 0 mm 3 mps 663 mmHg 34%
    18:00 +21°C° 0 mm 3 mps 663 mmHg 40%
    19:00 +19°C° 0 mm 3 mps 662 mmHg 46%
    20:00 +16°C° 0 mm 2 mps 662 mmHg 53%
    21:00 +15°C° 0 mm 2 mps 662 mmHg 57%
    22:00 +15°C° 0 mm 2 mps 662 mmHg 61%
    23:00 +14°C° 0 mm 2 mps 662 mmHg 66%

    11 June, Thursday

    Time Temperature Precipitation Wind Pressure Humidity
    00:00 +13°C° 0 mm 2 mps 662 mmHg 69%
    01:00 +13°C° 0 mm 1 mps 661 mmHg 73%
    02:00 +12°C° 0 mm 1 mps 661 mmHg 77%
    03:00 +12°C° 0 mm 1 mps 661 mmHg 79%
    04:00 +12°C° 0 mm 1 mps 661 mmHg 82%
    05:00 +11°C° 0 mm 1 mps 661 mmHg 84%
    06:00 +13°C° 0 mm 2 mps 662 mmHg 77%
    07:00 +15°C° 0 mm 2 mps 663 mmHg 69%
    08:00 +16°C° 0 mm 2 mps 664 mmHg 62%
    09:00 +20°C° 0 mm 2 mps 664 mmHg 52%
    10:00 +24°C° 0 mm 2 mps 665 mmHg 42%
    11:00 +27°C° 0 mm 2 mps 665 mmHg 32%
    12:00 +29°C° 0 mm 2 mps 665 mmHg 29%
    13:00 +31°C° 0 mm 1 mps 665 mmHg 25%
    14:00 +31°C° 0 mm 0 mps 664 mmHg 21%
    15:00 +31°C° 0 mm 1 mps 664 mmHg 24%
    16:00 +29°C° 0 mm 1 mps 663 mmHg 27%
    17:00 +27°C° 0 mm 2 mps 662 mmHg 29%
    18:00 +24°C° 0 mm 2 mps 662 mmHg 35%
    19:00 +20°C° 0 mm 2 mps 662 mmHg 41%
    20:00 +18°C° 0 mm 2 mps 662 mmHg 47%
    21:00 +17°C° 0 mm 2 mps 662 mmHg 52%
    22:00 +16°C° 0 mm 1 mps 662 mmHg 57%
    23:00 +14°C° 0 mm 1 mps 661 mmHg 61%
    Show more